Year,Month,Day,Hour,Minute,Value (Times are PST for temperature in C)
2006,07,19,00,00,13.90
2006,07,19,00,01,13.90
2006,07,19,00,02,13.90
2006,07,19,00,03,13.80
2006,07,19,00,04,13.80
2006,07,19,00,05,13.80
2006,07,19,00,06,13.80
2006,07,19,00,07,13.80
2006,07,19,00,08,13.80
2006,07,19,00,09,13.70
2006,07,19,00,10,13.70
2006,07,19,00,11,13.70
2006,07,19,00,12,13.70
2006,07,19,00,13,13.70
2006,07,19,00,14,13.70
2006,07,19,00,15,13.60
2006,07,19,00,16,13.60
2006,07,19,00,17,13.60
2006,07,19,00,18,13.60
2006,07,19,00,19,13.60
2006,07,19,00,20,13.60
2006,07,19,00,21,13.60
2006,07,19,00,22,13.50
2006,07,19,00,23,13.50
2006,07,19,00,24,13.50
2006,07,19,00,25,13.50
2006,07,19,00,26,13.40
2006,07,19,00,27,13.40
2006,07,19,00,28,13.40
2006,07,19,00,29,13.40
2006,07,19,00,30,13.40
2006,07,19,00,31,13.40
2006,07,19,00,32,13.40
2006,07,19,00,33,13.30
2006,07,19,00,34,13.30
2006,07,19,00,35,13.30
2006,07,19,00,36,13.30
2006,07,19,00,37,13.30
2006,07,19,00,38,13.30
2006,07,19,00,39,13.30
2006,07,19,00,40,13.30
2006,07,19,00,41,13.30
2006,07,19,00,42,13.30
2006,07,19,00,43,13.30
2006,07,19,00,44,13.30
2006,07,19,00,45,13.30
2006,07,19,00,46,13.20
2006,07,19,00,47,13.20
2006,07,19,00,48,13.20
2006,07,19,00,49,13.20
2006,07,19,00,50,13.10
2006,07,19,00,51,13.10
2006,07,19,00,52,13.10
2006,07,19,00,53,13.00
2006,07,19,00,54,13.00
2006,07,19,00,55,13.00
2006,07,19,00,56,12.90
2006,07,19,00,57,12.90
2006,07,19,00,58,12.90
2006,07,19,00,59,12.90
2006,07,19,01,00,12.80
2006,07,19,01,01,12.80
2006,07,19,01,02,12.80
2006,07,19,01,03,12.80
2006,07,19,01,04,12.80
2006,07,19,01,05,12.80
2006,07,19,01,06,12.80
2006,07,19,01,07,12.70
2006,07,19,01,08,12.70
2006,07,19,01,09,12.70
2006,07,19,01,10,12.70
2006,07,19,01,11,12.60
2006,07,19,01,12,12.60
2006,07,19,01,13,12.60
2006,07,19,01,14,12.60
2006,07,19,01,15,12.60
2006,07,19,01,16,12.60
2006,07,19,01,17,12.60
2006,07,19,01,18,12.70
2006,07,19,01,19,12.70
2006,07,19,01,20,12.70
2006,07,19,01,21,12.70
2006,07,19,01,22,12.70
2006,07,19,01,23,12.60
2006,07,19,01,24,12.60
2006,07,19,01,25,12.60
2006,07,19,01,26,12.60
2006,07,19,01,27,12.60
2006,07,19,01,28,12.60
2006,07,19,01,29,12.50
2006,07,19,01,30,12.50
2006,07,19,01,31,12.50
2006,07,19,01,32,12.50
2006,07,19,01,33,12.50
2006,07,19,01,34,12.40
2006,07,19,01,35,12.40
2006,07,19,01,36,12.40
2006,07,19,01,37,12.40
2006,07,19,01,38,12.30
2006,07,19,01,39,12.30
2006,07,19,01,40,12.30
2006,07,19,01,41,12.30
2006,07,19,01,42,12.30
2006,07,19,01,43,12.30
2006,07,19,01,44,12.30
2006,07,19,01,45,12.30
2006,07,19,01,46,12.30
2006,07,19,01,47,12.20
2006,07,19,01,48,12.20
2006,07,19,01,49,12.20
2006,07,19,01,50,12.20
2006,07,19,01,51,12.20
2006,07,19,01,52,12.10
2006,07,19,01,53,12.10
2006,07,19,01,54,12.10
2006,07,19,01,55,12.10
2006,07,19,01,56,12.10
2006,07,19,01,57,12.00
2006,07,19,01,58,12.00
2006,07,19,01,59,12.00
2006,07,19,02,00,12.00
2006,07,19,02,01,12.00
2006,07,19,02,02,12.00
2006,07,19,02,03,12.00
2006,07,19,02,04,12.00
2006,07,19,02,05,12.00
2006,07,19,02,06,11.90
2006,07,19,02,07,11.90
2006,07,19,02,08,11.90
2006,07,19,02,09,11.90
2006,07,19,02,10,11.80
2006,07,19,02,11,11.80
2006,07,19,02,12,11.80
2006,07,19,02,13,11.80
2006,07,19,02,14,11.80
2006,07,19,02,15,11.80
2006,07,19,02,16,11.80
2006,07,19,02,17,11.80
2006,07,19,02,18,11.80
2006,07,19,02,19,11.70
2006,07,19,02,20,11.70
2006,07,19,02,21,11.70
2006,07,19,02,22,11.70
2006,07,19,02,23,11.70
2006,07,19,02,24,11.60
2006,07,19,02,25,11.60
2006,07,19,02,26,11.60
2006,07,19,02,27,11.60
2006,07,19,02,28,11.60
2006,07,19,02,29,11.60
2006,07,19,02,30,11.60
2006,07,19,02,31,11.70
2006,07,19,02,32,11.70
2006,07,19,02,33,11.70
2006,07,19,02,34,11.70
2006,07,19,02,35,11.70
2006,07,19,02,36,11.70
2006,07,19,02,37,11.70
2006,07,19,02,38,11.70
2006,07,19,02,39,11.70
2006,07,19,02,40,11.70
2006,07,19,02,41,11.70
2006,07,19,02,42,11.70
2006,07,19,02,43,11.80
2006,07,19,02,44,11.80
2006,07,19,02,45,11.80
2006,07,19,02,46,11.80
2006,07,19,02,47,11.70
2006,07,19,02,48,11.70
2006,07,19,02,49,11.70
2006,07,19,02,50,11.70
2006,07,19,02,51,11.60
2006,07,19,02,52,11.60
2006,07,19,02,53,11.60
2006,07,19,02,54,11.60
2006,07,19,02,55,11.60
2006,07,19,02,56,11.60
2006,07,19,02,57,11.60
2006,07,19,02,58,11.60
2006,07,19,02,59,11.50
2006,07,19,03,00,11.40
2006,07,19,03,01,11.40
2006,07,19,03,02,11.40
2006,07,19,03,03,11.40
2006,07,19,03,04,11.40
2006,07,19,03,05,11.40
2006,07,19,03,06,11.40
2006,07,19,03,07,11.40
2006,07,19,03,08,11.40
2006,07,19,03,09,11.40
2006,07,19,03,10,11.40
2006,07,19,03,11,11.40
2006,07,19,03,12,11.40
2006,07,19,03,13,11.40
2006,07,19,03,14,11.40
2006,07,19,03,15,11.40
2006,07,19,03,16,11.40
2006,07,19,03,17,11.30
2006,07,19,03,18,11.30
2006,07,19,03,19,11.30
2006,07,19,03,20,11.30
2006,07,19,03,21,11.20
2006,07,19,03,22,11.20
2006,07,19,03,23,11.20
2006,07,19,03,24,11.20
2006,07,19,03,25,11.20
2006,07,19,03,26,11.10
2006,07,19,03,27,11.10
2006,07,19,03,28,11.10
2006,07,19,03,29,11.10
2006,07,19,03,30,11.10
2006,07,19,03,31,11.10
2006,07,19,03,32,11.10
2006,07,19,03,33,11.10
2006,07,19,03,34,11.10
2006,07,19,03,35,11.10
2006,07,19,03,36,11.00
2006,07,19,03,37,10.90
2006,07,19,03,38,10.90
2006,07,19,03,39,10.90
2006,07,19,03,40,10.90
2006,07,19,03,41,10.90
2006,07,19,03,42,10.90
2006,07,19,03,43,10.90
2006,07,19,03,44,10.90
2006,07,19,03,45,10.90
2006,07,19,03,46,10.80
2006,07,19,03,47,10.80
2006,07,19,03,48,10.80
2006,07,19,03,49,10.80
2006,07,19,03,50,10.80
2006,07,19,03,51,10.80
2006,07,19,03,52,10.80
2006,07,19,03,53,10.80
2006,07,19,03,54,10.80
2006,07,19,03,55,10.80
2006,07,19,03,56,10.80
2006,07,19,03,57,10.80
2006,07,19,03,58,10.80
2006,07,19,03,59,10.80
2006,07,19,04,00,10.80
2006,07,19,04,01,10.80
2006,07,19,04,02,10.80
2006,07,19,04,03,10.80
2006,07,19,04,04,10.70
2006,07,19,04,05,10.80
2006,07,19,04,06,10.80
2006,07,19,04,07,10.80
2006,07,19,04,08,10.80
2006,07,19,04,09,10.80
2006,07,19,04,10,10.80
2006,07,19,04,11,10.80
2006,07,19,04,12,10.80
2006,07,19,04,13,10.70
2006,07,19,04,14,10.70
2006,07,19,04,15,10.70
2006,07,19,04,16,10.70
2006,07,19,04,17,10.70
2006,07,19,04,18,10.70
2006,07,19,04,19,10.70
2006,07,19,04,20,10.70
2006,07,19,04,21,10.70
2006,07,19,04,22,10.70
2006,07,19,04,23,10.80
2006,07,19,04,24,10.80
2006,07,19,04,25,10.80
2006,07,19,04,26,10.80
2006,07,19,04,27,10.70
2006,07,19,04,28,10.70
2006,07,19,04,29,10.70
2006,07,19,04,30,10.70
2006,07,19,04,31,10.60
2006,07,19,04,32,10.60
2006,07,19,04,33,10.60
2006,07,19,04,34,10.60
2006,07,19,04,35,10.60
2006,07,19,04,36,10.60
2006,07,19,04,37,10.60
2006,07,19,04,38,10.60
2006,07,19,04,39,10.60
2006,07,19,04,40,10.60
2006,07,19,04,41,10.60
2006,07,19,04,42,10.60
2006,07,19,04,43,10.60
2006,07,19,04,44,10.60
2006,07,19,04,45,10.60
2006,07,19,04,46,10.60
2006,07,19,04,47,10.60
2006,07,19,04,48,10.60
2006,07,19,04,49,10.60
2006,07,19,04,50,10.60
2006,07,19,04,51,10.60
2006,07,19,04,52,10.60
2006,07,19,04,53,10.60
2006,07,19,04,54,10.60
2006,07,19,04,55,10.50
2006,07,19,04,56,10.40
2006,07,19,04,57,10.40
2006,07,19,04,58,10.40
2006,07,19,04,59,10.40
2006,07,19,05,00,10.40
2006,07,19,05,01,10.40
2006,07,19,05,02,10.40
2006,07,19,05,03,10.30
2006,07,19,05,04,10.30
2006,07,19,05,05,10.30
2006,07,19,05,06,10.30
2006,07,19,05,07,10.30
2006,07,19,05,08,10.30
2006,07,19,05,09,10.30
2006,07,19,05,10,10.20
2006,07,19,05,11,10.20
2006,07,19,05,12,10.20
2006,07,19,05,13,10.10
2006,07,19,05,14,10.10
2006,07,19,05,15,10.10
2006,07,19,05,16,10.10
2006,07,19,05,17,10.10
2006,07,19,05,18,10.10
2006,07,19,05,19,10.10
2006,07,19,05,20,10.10
2006,07,19,05,21,10.10
2006,07,19,05,22,10.10
2006,07,19,05,23,10.10
2006,07,19,05,24,10.10
2006,07,19,05,25,10.10
2006,07,19,05,26,10.10
2006,07,19,05,27,10.10
2006,07,19,05,28,10.10
2006,07,19,05,29,10.20
2006,07,19,05,30,10.20
2006,07,19,05,31,10.20
2006,07,19,05,32,10.20
2006,07,19,05,33,10.20
2006,07,19,05,34,10.20
2006,07,19,05,35,10.20
2006,07,19,05,36,10.20
2006,07,19,05,37,10.20
2006,07,19,05,38,10.20
2006,07,19,05,39,10.30
2006,07,19,05,40,10.30
2006,07,19,05,41,10.30
2006,07,19,05,42,10.30
2006,07,19,05,43,10.40
2006,07,19,05,44,10.30
2006,07,19,05,45,10.30
2006,07,19,05,46,10.30
2006,07,19,05,47,10.30
2006,07,19,05,48,10.20
2006,07,19,05,49,10.20
2006,07,19,05,50,10.30
2006,07,19,05,51,10.30
2006,07,19,05,52,10.30
2006,07,19,05,53,10.30
2006,07,19,05,54,10.30
2006,07,19,05,55,10.30
2006,07,19,05,56,10.30
2006,07,19,05,57,10.20
2006,07,19,05,58,10.20
2006,07,19,05,59,10.20
2006,07,19,06,00,10.20
2006,07,19,06,01,10.20
2006,07,19,06,02,10.20
2006,07,19,06,03,10.20
2006,07,19,06,04,10.20
2006,07,19,06,05,10.20
2006,07,19,06,06,10.30
2006,07,19,06,07,10.30
2006,07,19,06,08,10.30
2006,07,19,06,09,10.40
2006,07,19,06,10,10.40
2006,07,19,06,11,10.40
2006,07,19,06,12,10.40
2006,07,19,06,13,10.40
2006,07,19,06,14,10.40
2006,07,19,06,15,10.40
2006,07,19,06,16,10.40
2006,07,19,06,17,10.40
2006,07,19,06,18,10.40
2006,07,19,06,19,10.50
2006,07,19,06,20,10.60
2006,07,19,06,21,10.60
2006,07,19,06,22,10.60
2006,07,19,06,23,10.60
2006,07,19,06,24,10.60
2006,07,19,06,25,10.60
2006,07,19,06,26,10.60
2006,07,19,06,27,10.60
2006,07,19,06,28,10.60
2006,07,19,06,29,10.70
2006,07,19,06,30,10.70
2006,07,19,06,31,10.70
2006,07,19,06,32,10.70
2006,07,19,06,33,10.80
2006,07,19,06,34,10.80
2006,07,19,06,35,10.80
2006,07,19,06,36,10.90
2006,07,19,06,37,10.90
2006,07,19,06,38,10.90
2006,07,19,06,39,11.00
2006,07,19,06,40,11.10
2006,07,19,06,41,11.10
2006,07,19,06,42,11.10
2006,07,19,06,43,11.20
2006,07,19,06,44,11.30
2006,07,19,06,45,11.30
2006,07,19,06,46,11.40
2006,07,19,06,47,11.40
2006,07,19,06,48,11.40
2006,07,19,06,49,11.50
2006,07,19,06,50,11.60
2006,07,19,06,51,11.60
2006,07,19,06,52,11.60
2006,07,19,06,53,11.70
2006,07,19,06,54,11.70
2006,07,19,06,55,11.80
2006,07,19,06,56,11.80
2006,07,19,06,57,11.80
2006,07,19,06,58,11.80
2006,07,19,06,59,11.90
2006,07,19,07,00,11.90
2006,07,19,07,01,12.00
2006,07,19,07,02,12.00
2006,07,19,07,03,12.00
2006,07,19,07,04,12.00
2006,07,19,07,05,12.00
2006,07,19,07,06,12.10
2006,07,19,07,07,12.10
2006,07,19,07,08,12.10
2006,07,19,07,09,12.10
2006,07,19,07,10,12.10
2006,07,19,07,11,12.20
2006,07,19,07,12,12.20
2006,07,19,07,13,12.20
2006,07,19,07,14,12.20
2006,07,19,07,15,12.30
2006,07,19,07,16,12.30
2006,07,19,07,17,12.30
2006,07,19,07,18,12.30
2006,07,19,07,19,12.30
2006,07,19,07,20,12.30
2006,07,19,07,21,12.40
2006,07,19,07,22,12.40
2006,07,19,07,23,12.40
2006,07,19,07,24,12.50
2006,07,19,07,25,12.50
2006,07,19,07,26,12.50
2006,07,19,07,27,12.60
2006,07,19,07,28,12.60
2006,07,19,07,29,12.60
2006,07,19,07,30,12.70
2006,07,19,07,31,12.70
2006,07,19,07,32,12.80
2006,07,19,07,33,12.80
2006,07,19,07,34,12.90
2006,07,19,07,35,13.00
2006,07,19,07,36,13.00
2006,07,19,07,37,13.10
2006,07,19,07,38,13.20
2006,07,19,07,39,13.30
2006,07,19,07,40,13.50
2006,07,19,07,41,13.50
2006,07,19,07,42,13.60
2006,07,19,07,43,13.70
2006,07,19,07,44,13.70
2006,07,19,07,45,13.80
2006,07,19,07,46,13.90
2006,07,19,07,47,13.90
2006,07,19,07,48,14.00
2006,07,19,07,49,14.10
2006,07,19,07,50,14.10
2006,07,19,07,51,14.20
2006,07,19,07,52,14.20
2006,07,19,07,53,14.20
2006,07,19,07,54,14.20
2006,07,19,07,55,14.20
2006,07,19,07,56,14.20
2006,07,19,07,57,14.20
2006,07,19,07,58,14.30
2006,07,19,07,59,14.30
2006,07,19,08,00,14.40
2006,07,19,08,01,14.50
2006,07,19,08,02,14.60
2006,07,19,08,03,14.70
2006,07,19,08,04,14.80
2006,07,19,08,05,15.00
2006,07,19,08,06,15.10
2006,07,19,08,07,15.20
2006,07,19,08,08,15.30
2006,07,19,08,09,15.50
2006,07,19,08,10,15.60
2006,07,19,08,11,15.70
2006,07,19,08,12,15.80
2006,07,19,08,13,16.00
2006,07,19,08,14,16.10
2006,07,19,08,15,16.20
2006,07,19,08,16,16.10
2006,07,19,08,17,16.10
2006,07,19,08,18,16.00
2006,07,19,08,19,15.90
2006,07,19,08,20,15.80
2006,07,19,08,21,15.80
2006,07,19,08,22,15.80
2006,07,19,08,23,15.80
2006,07,19,08,24,15.70
2006,07,19,08,25,15.70
2006,07,19,08,26,15.70
2006,07,19,08,27,15.70
2006,07,19,08,28,15.60
2006,07,19,08,29,15.70
2006,07,19,08,30,15.70
2006,07,19,08,31,15.70
2006,07,19,08,32,15.70
2006,07,19,08,33,15.80
2006,07,19,08,34,15.80
2006,07,19,08,35,15.80
2006,07,19,08,36,15.80
2006,07,19,08,37,15.90
2006,07,19,08,38,15.90
2006,07,19,08,39,16.00
2006,07,19,08,40,16.10
2006,07,19,08,41,16.10
2006,07,19,08,42,16.20
2006,07,19,08,43,16.20
2006,07,19,08,44,16.30
2006,07,19,08,45,16.30
2006,07,19,08,46,16.30
2006,07,19,08,47,16.40
2006,07,19,08,48,16.40
2006,07,19,08,49,16.50
2006,07,19,08,50,16.50
2006,07,19,08,51,16.50
2006,07,19,08,52,16.60
2006,07,19,08,53,16.60
2006,07,19,08,54,16.70
2006,07,19,08,55,16.70
2006,07,19,08,56,16.70
2006,07,19,08,57,16.70
2006,07,19,08,58,16.70
2006,07,19,08,59,16.80
2006,07,19,09,00,16.80
2006,07,19,09,01,16.90
2006,07,19,09,02,16.90
2006,07,19,09,03,16.90
2006,07,19,09,04,16.90
2006,07,19,09,05,16.90
2006,07,19,09,06,16.90
2006,07,19,09,07,16.80
2006,07,19,09,08,16.80
2006,07,19,09,09,16.70
2006,07,19,09,10,16.70
2006,07,19,09,11,16.70
2006,07,19,09,12,16.70
2006,07,19,09,13,16.70
2006,07,19,09,14,16.70
2006,07,19,09,15,16.70
2006,07,19,09,16,16.60
2006,07,19,09,17,16.50
2006,07,19,09,18,16.40
2006,07,19,09,19,16.40
2006,07,19,09,20,16.40
2006,07,19,09,21,16.40
2006,07,19,09,22,16.40
2006,07,19,09,23,16.40
2006,07,19,09,24,16.40
2006,07,19,09,25,16.40
2006,07,19,09,26,16.40
2006,07,19,09,27,16.40
2006,07,19,09,28,16.50
2006,07,19,09,29,16.60
2006,07,19,09,30,16.60
2006,07,19,09,31,16.60
2006,07,19,09,32,16.60
2006,07,19,09,33,16.70
2006,07,19,09,34,16.70
2006,07,19,09,35,16.70
2006,07,19,09,36,16.70
2006,07,19,09,37,16.80
2006,07,19,09,38,16.80
2006,07,19,09,39,16.80
2006,07,19,09,40,16.80
2006,07,19,09,41,16.90
2006,07,19,09,42,16.90
2006,07,19,09,43,16.90
2006,07,19,09,44,17.00
2006,07,19,09,45,17.00
2006,07,19,09,46,17.10
2006,07,19,09,47,17.10
2006,07,19,09,48,17.20
2006,07,19,09,49,17.20
2006,07,19,09,50,17.20
2006,07,19,09,51,17.20
2006,07,19,09,52,17.20
2006,07,19,09,53,17.20
2006,07,19,09,54,17.10
2006,07,19,09,55,17.10
2006,07,19,09,56,17.20
2006,07,19,09,57,17.20
2006,07,19,09,58,17.20
2006,07,19,09,59,17.20
2006,07,19,10,00,17.20
2006,07,19,10,01,17.20
2006,07,19,10,02,17.30
2006,07,19,10,03,17.30
2006,07,19,10,04,17.30
2006,07,19,10,05,17.30
2006,07,19,10,06,17.30
2006,07,19,10,07,17.40
2006,07,19,10,08,17.50
2006,07,19,10,09,17.60
2006,07,19,10,10,17.70
2006,07,19,10,11,17.80
2006,07,19,10,12,17.90
2006,07,19,10,13,17.90
2006,07,19,10,14,18.10
2006,07,19,10,15,18.10
2006,07,19,10,16,18.20
2006,07,19,10,17,18.20
2006,07,19,10,18,18.20
2006,07,19,10,19,18.20
2006,07,19,10,20,18.30
2006,07,19,10,21,18.30
2006,07,19,10,22,18.20
2006,07,19,10,23,18.20
2006,07,19,10,24,18.20
2006,07,19,10,25,18.20
2006,07,19,10,26,18.20
2006,07,19,10,27,18.20
2006,07,19,10,28,18.20
2006,07,19,10,29,18.20
2006,07,19,10,30,18.20
2006,07,19,10,31,18.20
2006,07,19,10,32,18.20
2006,07,19,10,33,18.20
2006,07,19,10,34,18.20
2006,07,19,10,35,18.20
2006,07,19,10,36,18.20
2006,07,19,10,37,18.20
2006,07,19,10,38,18.20
2006,07,19,10,39,18.20
2006,07,19,10,40,18.20
2006,07,19,10,41,18.30
2006,07,19,10,42,18.30
2006,07,19,10,43,18.40
2006,07,19,10,44,18.40
2006,07,19,10,45,18.50
2006,07,19,10,46,18.50
2006,07,19,10,47,18.50
2006,07,19,10,48,18.60
2006,07,19,10,49,18.60
2006,07,19,10,50,18.60
2006,07,19,10,51,18.60
2006,07,19,10,52,18.60
2006,07,19,10,53,18.60
2006,07,19,10,54,18.60
2006,07,19,10,55,18.50
2006,07,19,10,56,18.50
2006,07,19,10,57,18.40
2006,07,19,10,58,18.40
2006,07,19,10,59,18.40
2006,07,19,11,00,18.40
2006,07,19,11,01,18.40
2006,07,19,11,02,18.30
2006,07,19,11,03,18.30
2006,07,19,11,04,18.30
2006,07,19,11,05,18.20
2006,07,19,11,06,18.20
2006,07,19,11,07,18.20
2006,07,19,11,08,18.30
2006,07,19,11,09,18.40
2006,07,19,11,10,18.40
2006,07,19,11,11,18.50
2006,07,19,11,12,18.60
2006,07,19,11,13,18.70
2006,07,19,11,14,18.80
2006,07,19,11,15,18.90
2006,07,19,11,16,19.00
2006,07,19,11,17,19.10
2006,07,19,11,18,19.30
2006,07,19,11,19,19.40
2006,07,19,11,20,19.50
2006,07,19,11,21,19.60
2006,07,19,11,22,19.70
2006,07,19,11,23,19.80
2006,07,19,11,24,19.80
2006,07,19,11,25,19.80
2006,07,19,11,26,19.80
2006,07,19,11,27,19.80
2006,07,19,11,28,19.90
2006,07,19,11,29,19.90
2006,07,19,11,30,19.80
2006,07,19,11,31,19.60
2006,07,19,11,32,19.60
2006,07,19,11,33,19.50
2006,07,19,11,34,19.60
2006,07,19,11,35,19.60
2006,07,19,11,36,19.60
2006,07,19,11,37,19.60
2006,07,19,11,38,19.60
2006,07,19,11,39,19.70
2006,07,19,11,40,19.70
2006,07,19,11,41,19.70
2006,07,19,11,42,19.90
2006,07,19,11,43,19.90
2006,07,19,11,44,20.00
2006,07,19,11,45,20.10
2006,07,19,11,46,20.20
2006,07,19,11,47,20.30
2006,07,19,11,48,20.40
2006,07,19,11,49,20.50
2006,07,19,11,50,20.50
2006,07,19,11,51,20.50
2006,07,19,11,52,20.60
2006,07,19,11,53,20.60
2006,07,19,11,54,20.60
2006,07,19,11,55,20.60
2006,07,19,11,56,20.60
2006,07,19,11,57,20.60
2006,07,19,11,58,20.60
2006,07,19,11,59,20.60
2006,07,19,12,00,20.60
2006,07,19,12,01,20.50
2006,07,19,12,02,20.50
2006,07,19,12,03,20.50
2006,07,19,12,04,20.40
2006,07,19,12,05,20.40
2006,07,19,12,06,20.30
2006,07,19,12,07,20.20
2006,07,19,12,08,20.20
2006,07,19,12,09,20.30
2006,07,19,12,10,20.20
2006,07,19,12,11,20.30
2006,07,19,12,12,20.40
2006,07,19,12,13,20.40
2006,07,19,12,14,20.30
2006,07,19,12,15,20.30
2006,07,19,12,16,20.30
2006,07,19,12,17,20.30
2006,07,19,12,18,20.20
2006,07,19,12,19,20.20
2006,07,19,12,20,20.20
2006,07,19,12,21,20.20
2006,07,19,12,22,20.10
2006,07,19,12,23,20.10
2006,07,19,12,24,20.10
2006,07,19,12,25,20.10
2006,07,19,12,26,20.10
2006,07,19,12,27,20.10
2006,07,19,12,28,20.10
2006,07,19,12,29,19.90
2006,07,19,12,30,19.90
2006,07,19,12,31,19.90
2006,07,19,12,32,19.90
2006,07,19,12,33,19.90
2006,07,19,12,34,19.90
2006,07,19,12,35,19.90
2006,07,19,12,36,19.90
2006,07,19,12,37,19.90
2006,07,19,12,38,19.90
2006,07,19,12,39,19.90
2006,07,19,12,40,19.90
2006,07,19,12,41,19.90
2006,07,19,12,42,19.90
2006,07,19,12,43,19.90
2006,07,19,12,44,19.90
2006,07,19,12,45,19.90
2006,07,19,12,46,19.90
2006,07,19,12,47,19.90
2006,07,19,12,48,19.80
2006,07,19,12,49,19.80
2006,07,19,12,50,19.70
2006,07,19,12,51,19.80
2006,07,19,12,52,19.80
2006,07,19,12,53,19.80
2006,07,19,12,54,19.80
2006,07,19,12,55,19.90
2006,07,19,12,56,19.90
2006,07,19,12,57,20.10
2006,07,19,12,58,20.20
2006,07,19,12,59,20.20
2006,07,19,13,00,20.20
2006,07,19,13,01,20.30
2006,07,19,13,02,20.40
2006,07,19,13,03,20.30
2006,07,19,13,04,20.30
2006,07,19,13,05,20.30
2006,07,19,13,06,20.30
2006,07,19,13,07,20.20
2006,07,19,13,08,20.20
2006,07,19,13,09,20.20
2006,07,19,13,10,20.20
2006,07,19,13,11,20.30
2006,07,19,13,12,20.40
2006,07,19,13,13,20.40
2006,07,19,13,14,20.30
2006,07,19,13,15,20.30
2006,07,19,13,16,20.30
2006,07,19,13,17,20.20
2006,07,19,13,18,20.20
2006,07,19,13,19,20.20
2006,07,19,13,20,20.00
2006,07,19,13,21,19.90
2006,07,19,13,22,19.90
2006,07,19,13,23,19.90
2006,07,19,13,24,19.90
2006,07,19,13,25,19.90
2006,07,19,13,26,20.00
2006,07,19,13,27,20.10
2006,07,19,13,28,20.10
2006,07,19,13,29,20.10
2006,07,19,13,30,20.00
2006,07,19,13,31,19.90
2006,07,19,13,32,19.90
2006,07,19,13,33,19.90
2006,07,19,13,34,19.90
2006,07,19,13,35,19.90
2006,07,19,13,36,19.90
2006,07,19,13,37,19.90
2006,07,19,13,38,19.90
2006,07,19,13,39,19.90
2006,07,19,13,40,19.90
2006,07,19,13,41,19.90
2006,07,19,13,42,19.90
2006,07,19,13,43,19.90
2006,07,19,13,44,19.90
2006,07,19,13,45,19.90
2006,07,19,13,46,19.90
2006,07,19,13,47,19.90
2006,07,19,13,48,20.00
2006,07,19,13,49,20.10
2006,07,19,13,50,20.20
2006,07,19,13,51,20.30
2006,07,19,13,52,20.30
2006,07,19,13,53,20.30
2006,07,19,13,54,20.40
2006,07,19,13,55,20.50
2006,07,19,13,56,20.60
2006,07,19,13,57,20.70
2006,07,19,13,58,20.70
2006,07,19,13,59,20.70
2006,07,19,14,00,20.70
2006,07,19,14,01,20.60
2006,07,19,14,02,20.60
2006,07,19,14,03,20.60
2006,07,19,14,04,20.60
2006,07,19,14,05,20.70
2006,07,19,14,06,20.80
2006,07,19,14,07,20.90
2006,07,19,14,08,20.90
2006,07,19,14,09,21.00
2006,07,19,14,10,21.10
2006,07,19,14,11,21.10
2006,07,19,14,12,21.10
2006,07,19,14,13,21.10
2006,07,19,14,14,21.10
2006,07,19,14,15,21.10
2006,07,19,14,16,21.10
2006,07,19,14,17,21.10
2006,07,19,14,18,21.20
2006,07,19,14,19,21.20
2006,07,19,14,20,21.10
2006,07,19,14,21,21.10
2006,07,19,14,22,21.20
2006,07,19,14,23,21.20
2006,07,19,14,24,21.20
2006,07,19,14,25,21.20
2006,07,19,14,26,21.30
2006,07,19,14,27,21.30
2006,07,19,14,28,21.30
2006,07,19,14,29,21.30
2006,07,19,14,30,21.30
2006,07,19,14,31,21.40
2006,07,19,14,32,21.40
2006,07,19,14,33,21.50
2006,07,19,14,34,21.60
2006,07,19,14,35,21.60
2006,07,19,14,36,21.60
2006,07,19,14,37,21.60
2006,07,19,14,38,21.60
2006,07,19,14,39,21.60
2006,07,19,14,40,21.70
2006,07,19,14,41,21.80
2006,07,19,14,42,21.70
2006,07,19,14,43,21.70
2006,07,19,14,44,21.70
2006,07,19,14,45,21.70
2006,07,19,14,46,21.60
2006,07,19,14,47,21.70
2006,07,19,14,48,21.70
2006,07,19,14,49,21.90
2006,07,19,14,50,21.90
2006,07,19,14,51,21.80
2006,07,19,14,52,21.90
2006,07,19,14,53,21.80
2006,07,19,14,54,21.90
2006,07,19,14,55,22.00
2006,07,19,14,56,21.90
2006,07,19,14,57,21.90
2006,07,19,14,58,21.90
2006,07,19,14,59,21.80
2006,07,19,15,00,21.60
2006,07,19,15,01,21.60
2006,07,19,15,02,21.50
2006,07,19,15,03,21.50
2006,07,19,15,04,21.60
2006,07,19,15,05,21.60
2006,07,19,15,06,21.80
2006,07,19,15,07,22.00
2006,07,19,15,08,22.10
2006,07,19,15,09,22.10
2006,07,19,15,10,22.20
2006,07,19,15,11,22.30
2006,07,19,15,12,22.30
2006,07,19,15,13,22.30
2006,07,19,15,14,22.40
2006,07,19,15,15,22.50
2006,07,19,15,16,22.50
2006,07,19,15,17,22.50
2006,07,19,15,18,22.40
2006,07,19,15,19,22.30
2006,07,19,15,20,22.30
2006,07,19,15,21,22.30
2006,07,19,15,22,22.40
2006,07,19,15,23,22.40
2006,07,19,15,24,22.50
2006,07,19,15,25,22.60
2006,07,19,15,26,22.80
2006,07,19,15,27,22.90
2006,07,19,15,28,22.90
2006,07,19,15,29,22.90
2006,07,19,15,30,22.90
2006,07,19,15,31,22.90
2006,07,19,15,32,22.90
2006,07,19,15,33,22.90
2006,07,19,15,34,22.90
2006,07,19,15,35,22.90
2006,07,19,15,36,23.00
2006,07,19,15,37,23.20
2006,07,19,15,38,23.30
2006,07,19,15,39,23.50
2006,07,19,15,40,23.60
2006,07,19,15,41,23.70
2006,07,19,15,42,23.80
2006,07,19,15,43,23.80
2006,07,19,15,44,23.80
2006,07,19,15,45,23.70
2006,07,19,15,46,23.70
2006,07,19,15,47,23.60
2006,07,19,15,48,23.60
2006,07,19,15,49,23.60
2006,07,19,15,50,23.70
2006,07,19,15,51,23.70
2006,07,19,15,52,23.70
2006,07,19,15,53,23.70
2006,07,19,15,54,23.80
2006,07,19,15,55,23.80
2006,07,19,15,56,24.00
2006,07,19,15,57,24.00
2006,07,19,15,58,24.00
2006,07,19,15,59,24.10
2006,07,19,16,00,24.00
2006,07,19,16,01,23.90
2006,07,19,16,02,23.80
2006,07,19,16,03,23.70
2006,07,19,16,04,23.60
2006,07,19,16,05,23.60
2006,07,19,16,06,23.60
2006,07,19,16,07,23.60
2006,07,19,16,08,23.60
2006,07,19,16,09,23.70
2006,07,19,16,10,23.60
2006,07,19,16,11,23.50
2006,07,19,16,12,23.40
2006,07,19,16,13,23.40
2006,07,19,16,14,23.40
2006,07,19,16,15,23.40
2006,07,19,16,16,23.30
2006,07,19,16,17,23.30
2006,07,19,16,18,23.30
2006,07,19,16,19,23.30
2006,07,19,16,20,23.30
2006,07,19,16,21,23.30
2006,07,19,16,22,23.40
2006,07,19,16,23,23.60
2006,07,19,16,24,23.50
2006,07,19,16,25,23.50
2006,07,19,16,26,23.40
2006,07,19,16,27,23.40
2006,07,19,16,28,23.50
2006,07,19,16,29,23.60
2006,07,19,16,30,23.70
2006,07,19,16,31,23.70
2006,07,19,16,32,23.80
2006,07,19,16,33,23.80
2006,07,19,16,34,23.70
2006,07,19,16,35,23.70
2006,07,19,16,36,23.70
2006,07,19,16,37,23.60
2006,07,19,16,38,23.60
2006,07,19,16,39,23.60
2006,07,19,16,40,23.60
2006,07,19,16,41,23.60
2006,07,19,16,42,23.40
2006,07,19,16,43,23.40
2006,07,19,16,44,23.40
2006,07,19,16,45,23.50
2006,07,19,16,46,23.60
2006,07,19,16,47,23.70
2006,07,19,16,48,23.70
2006,07,19,16,49,23.70
2006,07,19,16,50,23.70
2006,07,19,16,51,23.70
2006,07,19,16,52,23.70
2006,07,19,16,53,23.80
2006,07,19,16,54,23.80
2006,07,19,16,55,23.80
2006,07,19,16,56,23.80
2006,07,19,16,57,23.70
2006,07,19,16,58,23.80
2006,07,19,16,59,23.80
2006,07,19,17,00,23.90
2006,07,19,17,01,24.00
2006,07,19,17,02,24.10
2006,07,19,17,03,24.10
2006,07,19,17,04,24.00
2006,07,19,17,05,23.90
2006,07,19,17,06,23.80
2006,07,19,17,07,23.70
2006,07,19,17,08,23.70
2006,07,19,17,09,23.70
2006,07,19,17,10,23.50
2006,07,19,17,11,23.40
2006,07,19,17,12,23.40
2006,07,19,17,13,23.40
2006,07,19,17,14,23.40
2006,07,19,17,15,23.50
2006,07,19,17,16,23.70
2006,07,19,17,17,23.70
2006,07,19,17,18,23.80
2006,07,19,17,19,23.80